Location: Newark
(51.3318°N, 0.0053°E)
Time: 12:32:43
(UTC+00:00)

MOZHAYETS 4 - Pass Details

Date: 02 July 2022
Orbit: 660 x 679 km, 98.2° (Epoch: 11 August)

Event Time Altitude Azimuth Distance (km) Brightness Sun altitude
Exits shadow 01:32:43 - 145° (SE) 2,826 10.6 -13.1°
Reaches altitude 10° 01:34:31 10° 140° (SE) 2,110 10.0 -13.0°
Maximum altitude 01:38:55 46° 68° (ENE) 913 8.8 -12.7°
Drops below altitude 10° 01:43:19 10° 356° (N) 2,114 11.3 -12.5°
Sets 01:45:37 0° 350° (N) 3,029 12.1 -12.3°
